[[{"header":{"parameterUnit":"m.s-1","parameterCategory":1,"la1":30.2991,"la2":30.254,"lo1":-89.0895,"lo2":-89.0444,"dy":0.0017,"dx":0.0017,"nx":28,"ny":28,"refTime":"2025-08-12T21:00:00:Z","depth":0,"parameterNumber":2,"parameterNumberName":"U-component_of_WINDS"},"data":[0,0,0,0,0,0,0,0,0,0,0,0,0,0,0,0,0,0,0,0,0,0,0,0,0,0,0,0,0,0,0,0,0,0,0,0,0,0,0,0,0,0,0,0,0,0,0,0,0,0,0,0,0,0,0,0,0,0,2.2806,2.2809,0,2.3005,2.3007,2.3009,2.31,2.31,2.3099,2.3099,2.3302,2.3308,2.3313,0,0,0,0,0,0,0,0,0,0,0,0,0,2.2506,2.2511,2.2806,2.2809,2.2811,2.3004,2.3007,2.301,2.31,2.31,2.3099,2.3099,2.33,2.3307,2.3314,0,0,0,0,0,0,0,0,0,0,0,0,0,2.2663,2.2512,2.2806,2.2879,2.2888,2.3004,2.3007,2.3011,2.31,2.31,2.3099,2.3099,2.3298,2.3306,2.3315,2.3373,0,0,2.334,2.3344,0,0,0,0,0,0,0,0,2.2654,2.2674,2.2866,2.2874,2.2884,2.3027,2.2976,2.3132,2.31,2.3019,2.3099,2.3099,2.3211,2.3227,2.3264,2.3382,2.3391,2.3341,2.3346,2.335,2.3352,0,0,0,0,0,0,0,2.2643,2.2666,2.2885,2.2869,2.288,2.2903,2.2925,2.3006,2.3114,2.3026,2.3033,2.3056,2.3216,2.3256,2.327,2.3394,2.3341,2.3348,2.3354,2.3357,2.357,2.3571,0,0,0,0,0,0,2.262,2.2656,2.2879,2.2891,2.2766,2.2908,2.2933,2.2982,2.3114,2.3134,2.3056,2.3059,2.3242,2.326,2.3277,2.3355,2.335,2.3358,2.3362,2.3569,2.357,2.3571,0,0,0,0,0,0,2.2613,2.2639,2.2871,2.2776,2.2807,2.2914,2.2968,2.2986,2.3026,2.3136,2.3156,2.3077,2.3242,2.3266,2.3349,2.3363,2.3361,2.3369,2.3569,2.357,2.357,2.3509,0,0,0,0,0,0,2.2604,2.2636,2.2659,2.2775,2.2812,2.2938,2.2969,2.299,2.304,2.3047,2.3161,2.318,2.3244,2.3335,2.3357,2.3375,2.3376,2.3568,2.3569,2.357,2.351,2.3508,2.3505,0,0,0,0,0,2.2593,2.2633,2.266,2.2686,2.2842,2.2939,2.2959,2.3032,2.3041,2.3065,2.3136,2.3176,2.3358,2.3343,2.3368,2.3388,2.3567,2.3569,2.357,2.3511,2.3508,2.3506,0,0,0,0,0,0,2.2516,2.265,2.2681,2.276,2.2837,2.2954,2.2986,2.3027,2.3103,2.3106,2.3193,2.3219,2.3294,2.335,2.3331,2.3452,2.3466,2.3473,2.3413,2.3411,2.3409,2.3394,2.3383,0,0,0,0,0,2.2508,2.2574,2.2688,2.2747,2.2784,2.2878,2.2923,2.2973,2.3056,2.309,2.3167,2.3246,2.3322,2.3369,2.3444,2.3518,2.3545,2.3545,2.3542,2.354,2.3545,2.3589,2.359,2.3575,2.3575,2.3575,0,0,2.2492,2.2574,2.2611,2.2734,2.28,2.2867,2.2905,2.2975,2.3026,2.31,2.3184,2.3242,2.3337,2.3416,2.3455,2.3465,2.3555,2.3542,2.3539,2.3545,2.3591,2.3592,2.3593,2.3576,2.3576,2.3576,0,0,2.2498,2.2566,2.2623,2.2689,2.2788,2.285,2.2864,2.2975,2.3017,2.3102,2.3159,2.3221,2.3349,2.3414,2.3464,2.3496,2.3536,2.3518,2.3506,2.3548,2.3549,2.3551,2.3563,2.3566,2.3522,2.3522,2.3522,0,2.2466,2.257,2.2647,2.2715,2.2767,2.2838,2.2896,2.2956,2.3074,2.3109,2.3119,2.3281,2.335,2.3445,2.3453,2.3491,2.351,2.3505,2.3543,2.3545,2.3547,2.356,2.3564,2.3519,2.3519,2.352,2.352,0,2.2527,2.2598,2.2632,2.2745,2.2802,2.2864,2.2951,2.2999,2.3044,2.3105,2.3191,2.3276,2.337,2.3396,2.344,2.3499,2.3502,2.3526,2.3542,2.3545,2.3558,2.3563,2.3515,2.3516,2.3517,2.3518,0,0,2.249,2.2645,2.2656,2.2709,2.2824,2.288,2.2946,2.3038,2.3078,2.3157,2.3215,2.3322,2.3345,2.3402,2.3454,2.3491,2.3511,2.3511,2.3514,2.3508,2.3581,2.3563,2.3567,2.3538,2.354,2.354,2.3574,0,2.2512,2.2633,2.2705,2.2797,2.2864,2.2932,2.2989,2.3066,2.3125,2.3191,2.3256,2.3331,2.3355,2.339,2.3429,2.35,2.3527,2.3499,2.3593,2.3596,2.3568,2.3574,2.3555,2.3582,2.3579,2.358,2.3581,0,2.2555,2.2633,2.2731,2.284,2.2871,2.2921,2.3012,2.3073,2.3162,2.3203,2.3266,2.3318,2.3391,2.3401,2.3502,2.3481,2.3524,2.3565,2.3568,2.358,2.3589,2.3587,2.3593,2.3597,2.359,2.3589,2.3588,0,2.2519,2.2649,2.2725,2.2768,2.2895,2.2929,2.2984,2.3073,2.3124,2.3203,2.3237,2.3323,2.3371,2.3437,2.3511,2.3511,2.3606,2.3621,2.3642,2.364,2.3659,2.3657,2.3672,2.3685,2.3685,2.3685,2.3685,0,2.2537,2.2595,2.2711,2.2757,2.2824,2.2906,2.297,2.3031,2.3109,2.3169,2.3232,2.3287,2.3382,2.3449,2.3508,2.3584,2.3604,2.3639,2.3654,2.3634,2.363,2.3664,2.3664,2.3686,2.3686,2.3686,2.3685,0,2.2508,2.2588,2.2676,2.279,2.282,2.2864,2.2962,2.301,2.3072,2.3148,2.317,2.3268,2.335,2.3431,2.3541,2.3581,2.3656,2.3675,2.3626,2.3634,2.365,2.3648,2.3689,2.3699,2.3703,2.3703,2.3703,0,2.2515,2.2561,2.268,2.2725,2.2779,2.285,2.2902,2.2985,2.3037,2.3142,2.3177,2.3264,2.3338,2.3466,2.3547,2.3632,2.3655,2.3663,2.3668,2.3646,2.3656,2.3653,2.3658,2.3661,2.366,2.366,2.366,0,2.2519,2.2556,2.263,2.2717,2.2778,2.2851,2.2926,2.2959,2.3056,2.3111,2.3196,2.3253,2.3366,2.3451,2.3546,2.3603,2.3648,2.3657,2.3667,2.3647,2.3616,2.3634,2.362,2.3656,2.3657,2.3657,2.3657,2.3657,2.2509,2.2554,2.2644,2.2724,2.2789,2.2858,2.2909,2.2978,2.305,2.3149,2.3193,2.3278,2.3367,2.3498,2.3554,2.3622,2.3634,2.3647,2.3651,2.3653,2.3649,2.3605,2.364,2.364,2.364,2.364,2.364,0,2.2517,2.2579,2.2651,2.2754,2.2817,2.2854,2.2939,2.2989,2.3063,2.3142,2.3214,2.3311,2.3395,2.3482,2.3571,2.3609,2.3632,2.3629,2.3628,2.364,2.3633,2.3616,2.3609,2.3609,2.3609,2.3609,2.3609,2.3609,2.2528,2.2606,2.2654,2.2764,2.2826,2.291,2.2956,2.302,2.3083,2.3189,2.3259,2.3316,2.3399,2.3494,2.3572,2.3596,2.3626,2.3618,2.3647,2.3639,2.3641,2.3643,2.3628,2.3623,2.3623,2.3649,2.365,2.365]},{"header":{"parameterUnit":"m.s-1","parameterCategory":1,"la1":30.2991,"la2":30.254,"lo1":-89.0895,"lo2":-89.0444,"dy":0.0017,"dx":0.0017,"nx":28,"ny":28,"refTime":"2025-08-12T21:00:00:Z","depth":0,"parameterNumber":3,"parameterNumberName":"V-component_of_WINDS"},"data":[0,0,0,0,0,0,0,0,0,0,0,0,0,0,0,0,0,0,0,0,0,0,0,0,0,0,0,0,0,0,0,0,0,0,0,0,0,0,0,0,0,0,0,0,0,0,0,0,0,0,0,0,0,0,0,0,0,0,0.6823,0.6824,0,0.6907,0.6908,0.6909,0.6928,0.6928,0.6927,0.6926,0.7017,0.702,0.7023,0,0,0,0,0,0,0,0,0,0,0,0,0,0.6683,0.6686,0.6823,0.6824,0.6825,0.6907,0.6908,0.6909,0.6928,0.6928,0.6927,0.6926,0.7016,0.7019,0.7023,0,0,0,0,0,0,0,0,0,0,0,0,0,0.6753,0.6687,0.6823,0.6844,0.6847,0.6906,0.6908,0.6909,0.6928,0.6927,0.6927,0.6926,0.7015,0.7019,0.7023,0.7068,0,0,0.7037,0.7039,0,0,0,0,0,0,0,0,0.6749,0.6758,0.684,0.6843,0.6846,0.6906,0.6892,0.6963,0.6929,0.6898,0.6926,0.6925,0.6981,0.6988,0.7006,0.7073,0.7077,0.7037,0.704,0.7042,0.7043,0,0,0,0,0,0,0,0.6744,0.6755,0.6856,0.6841,0.6845,0.6851,0.686,0.6905,0.6943,0.69,0.6902,0.6911,0.6983,0.7002,0.7008,0.7078,0.7037,0.7041,0.7044,0.7046,0.7186,0.7187,0,0,0,0,0,0,0.6735,0.6751,0.6854,0.6859,0.6794,0.6854,0.6864,0.6888,0.6943,0.695,0.6912,0.6912,0.6994,0.7003,0.7011,0.7068,0.7042,0.7046,0.7049,0.7185,0.7186,0.7187,0,0,0,0,0,0,0.6732,0.6744,0.685,0.6805,0.6819,0.6858,0.6884,0.689,0.6909,0.6952,0.6959,0.6924,0.6994,0.7005,0.7054,0.7071,0.7048,0.7052,0.7183,0.7185,0.7187,0.7181,0,0,0,0,0,0,0.6728,0.6743,0.676,0.6805,0.6821,0.689,0.6885,0.6892,0.6916,0.6917,0.6965,0.6972,0.6994,0.7047,0.7058,0.7077,0.7056,0.7182,0.7184,0.7186,0.718,0.7182,0.7184,0,0,0,0,0,0.6723,0.6756,0.676,0.6773,0.6843,0.6891,0.69,0.6923,0.6917,0.6935,0.6962,0.6971,0.7067,0.7052,0.7065,0.7085,0.7181,0.7184,0.7186,0.7179,0.7182,0.7184,0,0,0,0,0,0,0.6713,0.6762,0.6768,0.6816,0.6849,0.6894,0.6917,0.6926,0.6962,0.6962,0.699,0.7001,0.7048,0.7071,0.7053,0.7131,0.7124,0.7129,0.7115,0.7118,0.712,0.7114,0.7059,0,0,0,0,0,0.6716,0.675,0.6792,0.683,0.6846,0.6879,0.6901,0.6915,0.6951,0.6965,0.6996,0.7032,0.707,0.7095,0.7133,0.7183,0.7194,0.7203,0.7205,0.7207,0.7212,0.724,0.7245,0.7195,0.7195,0.7195,0,0,0.6724,0.6755,0.6775,0.6829,0.6856,0.6892,0.689,0.6928,0.6955,0.6972,0.7019,0.7043,0.7085,0.7134,0.7157,0.7155,0.7228,0.721,0.7211,0.7215,0.7243,0.7248,0.7252,0.7197,0.7196,0.7196,0,0,0.6756,0.6782,0.6817,0.6844,0.6884,0.6905,0.6914,0.6957,0.6973,0.7021,0.7034,0.7067,0.7132,0.7161,0.7185,0.7226,0.7235,0.7237,0.725,0.7277,0.7281,0.7285,0.73,0.7305,0.7241,0.7241,0.7241,0,0.6761,0.6813,0.6835,0.6871,0.6895,0.691,0.6946,0.6971,0.7023,0.7039,0.7035,0.7117,0.7146,0.7203,0.7212,0.7231,0.7242,0.7233,0.7278,0.7282,0.7286,0.7301,0.7307,0.7241,0.7241,0.7241,0.7241,0,0.6818,0.6854,0.6877,0.6924,0.6951,0.6987,0.7015,0.7039,0.7051,0.7073,0.7122,0.7156,0.7201,0.7216,0.7229,0.7274,0.7271,0.7272,0.7266,0.7291,0.7305,0.7311,0.7241,0.7241,0.7241,0.7241,0,0,0.6848,0.6905,0.6913,0.6935,0.6979,0.7008,0.7045,0.7087,0.7108,0.7142,0.7175,0.7229,0.723,0.7256,0.7273,0.7297,0.7328,0.7295,0.7296,0.7301,0.7381,0.7381,0.7387,0.7333,0.7335,0.7336,0.7378,0,0.6886,0.6951,0.6971,0.7026,0.706,0.7074,0.7106,0.7138,0.7159,0.7192,0.7215,0.7254,0.7251,0.7267,0.7292,0.7319,0.7344,0.7316,0.7366,0.7367,0.7356,0.7395,0.7395,0.7433,0.7384,0.7385,0.7385,0,0.694,0.6973,0.7031,0.7071,0.7086,0.7115,0.7155,0.7185,0.7221,0.7235,0.7264,0.7277,0.7318,0.7307,0.7364,0.7344,0.7365,0.7382,0.7384,0.7391,0.7379,0.7404,0.7446,0.7452,0.7395,0.7394,0.7393,0,0.6956,0.7016,0.7059,0.7076,0.7124,0.7144,0.7165,0.72,0.7224,0.7259,0.7275,0.7315,0.7337,0.7368,0.7393,0.7383,0.7448,0.7439,0.7461,0.7461,0.7476,0.7475,0.7523,0.7487,0.7487,0.7487,0.7487,0,0.6998,0.7033,0.7067,0.7093,0.7133,0.7156,0.7195,0.7217,0.7248,0.7279,0.7294,0.7324,0.7353,0.7387,0.7407,0.7451,0.7461,0.7474,0.7479,0.7474,0.7472,0.749,0.7488,0.7489,0.7488,0.7488,0.7488,0,0.7024,0.7048,0.7095,0.7136,0.7146,0.7174,0.721,0.7236,0.7257,0.7297,0.7307,0.7341,0.7381,0.7408,0.7461,0.7474,0.7522,0.7526,0.751,0.7512,0.7533,0.7531,0.7596,0.7606,0.7562,0.7562,0.7562,0,0.705,0.7077,0.712,0.7141,0.7161,0.7196,0.722,0.7243,0.7267,0.731,0.7332,0.7372,0.7407,0.7471,0.7501,0.7541,0.7547,0.7567,0.7554,0.7547,0.7549,0.7547,0.7551,0.7569,0.757,0.757,0.757,0,0.7093,0.7103,0.7136,0.7173,0.7201,0.7231,0.7262,0.7279,0.7308,0.7335,0.7375,0.7402,0.7454,0.7495,0.7538,0.7561,0.7571,0.7574,0.7581,0.7577,0.7566,0.7573,0.7517,0.7573,0.7572,0.7572,0.7572,0.7572,0.7121,0.7145,0.7179,0.7215,0.724,0.7269,0.7295,0.7319,0.7352,0.7396,0.7407,0.745,0.7486,0.7543,0.7567,0.7602,0.76,0.7611,0.7614,0.7616,0.7617,0.7559,0.7609,0.7609,0.7609,0.7609,0.7609,0,0.7165,0.7187,0.722,0.7262,0.7291,0.7295,0.7329,0.7353,0.739,0.7421,0.7454,0.7501,0.754,0.7572,0.7614,0.7635,0.7641,0.7645,0.7645,0.765,0.7616,0.7605,0.764,0.764,0.764,0.764,0.764,0.764,0.7192,0.7234,0.7248,0.7303,0.7325,0.7365,0.7385,0.7411,0.7436,0.7487,0.7519,0.7539,0.7571,0.7615,0.7651,0.766,0.7675,0.7679,0.7689,0.7656,0.7653,0.7649,0.764,0.7681,0.7682,0.7721,0.7721,0.7721]}]]